User: anonymous   Login
Location: Unspecified
(0.0000°N, 0.0000°E)
Time: 10:04:13
(UTC+00:00)
Language:

SHIYAN 20A (SY-20A) - Orbit

View from above orbital plane
View from above orbital plane
View from above satellite
View from above satellite

Ground track
Ground track

The orbit is defined by the following mean orbital elements,

1 54699U          26145.64254676 +.00000000 +00000-0 +57512-4 0 00008
2 54699  59.9975 314.9525 0010018 159.3871 200.7571 14.29519540    04
Epoch (UTC): 25 May 2026 15:25:16
Eccentricity: 0.0010018
inclination: 59.9975°
perigee height: 786 km
apogee height: 801 km
right ascension of ascending node: 314.9525°
argument of perigee: 159.3871°
revolutions per day: 14.29519540
mean anomaly at epoch: 200.7571°

The dashed part of the orbit path shows where the satellite is in the earth's shadow,  

DLR